,,,PA_Meas_PMT16A,,PR_Meas_QMR101_102,,RH_Meas_QMH101,,SR_Meas_QMS101,,TA_Meas_QMH101,,GenWind,,GenWind,
date,time,status,PA,status,PR,status,RH,status,SR,status,TA,status,DirAvg,status,SpdAvg,
2012-07-27, 00:00:05,VALID,1001.66,VALID,0,VALID,90.2203,VALID,0,VALID,23.3305,VALID,107,VALID,0.436328,
2012-07-27, 00:01:05,VALID,1001.66,VALID,0,VALID,90.1974,VALID,0,VALID,23.311,VALID,107,VALID,0.0644531,
2012-07-27, 00:02:05,VALID,1001.64,VALID,0,VALID,90.2279,VALID,0,VALID,23.311,VALID,107,VALID,0.00429688,
2012-07-27, 00:03:05,VALID,1001.68,VALID,0,VALID,90.3347,VALID,0,VALID,23.311,VALID,107,VALID,0.325391,
2012-07-27, 00:04:05,VALID,1001.63,VALID,0,VALID,90.3347,VALID,0,VALID,23.311,VALID,107,VALID,0.243359,
2012-07-27, 00:05:05,VALID,1001.63,VALID,0,VALID,90.2966,VALID,0,VALID,23.311,VALID,107,VALID,0,
2012-07-27, 00:06:05,VALID,1001.61,VALID,0,VALID,90.5407,VALID,0,VALID,23.311,VALID,107,VALID,0,
2012-07-27, 00:07:05,VALID,1001.62,VALID,0,VALID,90.4873,VALID,0,VALID,23.311,VALID,107,VALID,0,
2012-07-27, 00:08:05,VALID,1001.6,VALID,0,VALID,90.556,VALID,0,VALID,23.2915,VALID,107,VALID,0,
2012-07-27, 00:09:05,VALID,1001.61,VALID,0,VALID,90.2431,VALID,0,VALID,23.2915,VALID,107,VALID,0.428125,
2012-07-27, 00:10:05,VALID,1001.6,VALID,0,VALID,89.7396,VALID,0,VALID,23.3305,VALID,157,VALID,0.705859,
2012-07-27, 00:11:05,VALID,1001.6,VALID,0,VALID,89.6938,VALID,0,VALID,23.3695,VALID,169,VALID,0.83125,
2012-07-27, 00:12:05,VALID,1001.54,VALID,0,VALID,89.4039,VALID,0,VALID,23.428,VALID,167,VALID,0.787891,
2012-07-27, 00:13:05,VALID,1001.55,VALID,0,VALID,89.6862,VALID,0,VALID,23.4866,VALID,164,VALID,0.682031,
2012-07-27, 00:14:05,VALID,1001.51,VALID,0,VALID,89.4344,VALID,0,VALID,23.5256,VALID,153,VALID,1.29453,
2012-07-27, 00:15:05,VALID,1001.51,VALID,0,VALID,88.8164,VALID,0,VALID,23.5451,VALID,151,VALID,0.826563,
2012-07-27, 00:16:05,VALID,1001.5,VALID,0,VALID,89.1521,VALID,0,VALID,23.5646,VALID,152,VALID,1.16758,
2012-07-27, 00:17:05,VALID,1001.46,VALID,0,VALID,89.1216,VALID,0,VALID,23.5646,VALID,152,VALID,1.12969,
2012-07-27, 00:18:05,VALID,1001.43,VALID,0,VALID,88.9537,VALID,0,VALID,23.5664,VALID,152,VALID,0.907422,
2012-07-27, 00:19:05,VALID,1001.43,VALID,0,VALID,88.8164,VALID,0,VALID,23.5451,VALID,152,VALID,0.621875,
2012-07-27, 00:20:05,VALID,1001.4,VALID,0,VALID,88.6943,VALID,0,VALID,23.5061,VALID,152,VALID,0.274609,
2012-07-27, 00:21:05,VALID,1001.4,VALID,0,VALID,88.8927,VALID,0,VALID,23.5256,VALID,152,VALID,0.160156,
2012-07-27, 00:22:05,VALID,1001.4,VALID,0,VALID,89.1292,VALID,0,VALID,23.5061,VALID,152,VALID,0.413281,
2012-07-27, 00:23:05,VALID,1001.39,VALID,0,VALID,89.1674,VALID,0,VALID,23.4848,VALID,152,VALID,0.478906,
2012-07-27, 00:24:05,VALID,1001.39,VALID,0,VALID,88.7401,VALID,0,VALID,23.4653,VALID,152,VALID,0.624219,
2012-07-27, 00:25:05,VALID,1001.39,VALID,0,VALID,88.3892,VALID,0,VALID,23.4866,VALID,152,VALID,0.404687,
2012-07-27, 00:26:05,VALID,1001.39,VALID,0,VALID,88.3129,VALID,0,VALID,23.4866,VALID,152,VALID,0.332812,
2012-07-27, 00:27:05,VALID,1001.4,VALID,0,VALID,88.2823,VALID,0,VALID,23.5061,VALID,152,VALID,0.367578,
2012-07-27, 00:28:05,VALID,1001.38,VALID,0,VALID,87.8627,VALID,0,VALID,23.4866,VALID,160,VALID,0.437891,
2012-07-27, 00:29:05,VALID,1001.37,VALID,0,VALID,87.0616,VALID,0,VALID,23.5061,VALID,203,VALID,0.589844,
2012-07-27, 00:30:05,VALID,1001.37,VALID,0,VALID,87.26,VALID,0,VALID,23.5646,VALID,203,VALID,0.434375,
2012-07-27, 00:31:05,VALID,1001.34,VALID,0,VALID,87.7101,VALID,0,VALID,23.5646,VALID,166,VALID,0.701172,
2012-07-27, 00:32:05,VALID,1001.33,VALID,0,VALID,86.8098,VALID,0,VALID,23.5646,VALID,155,VALID,0.564453,
2012-07-27, 00:33:05,VALID,1001.33,VALID,0,VALID,86.848,VALID,0,VALID,23.5841,VALID,155,VALID,0.657812,
2012-07-27, 00:34:05,VALID,1001.32,VALID,0,VALID,86.8098,VALID,0,VALID,23.5841,VALID,175,VALID,0.720703,
2012-07-27, 00:35:05,VALID,1001.34,VALID,0,VALID,86.5046,VALID,0,VALID,23.6036,VALID,175,VALID,0.800781,
2012-07-27, 00:36:05,VALID,1001.33,VALID,0,VALID,86.5733,VALID,0,VALID,23.6232,VALID,160,VALID,0.739844,
2012-07-27, 00:37:05,VALID,1001.31,VALID,0,VALID,86.436,VALID,0,VALID,23.6427,VALID,150,VALID,0.809375,
2012-07-27, 00:38:05,VALID,1001.29,VALID,0,VALID,86.1918,VALID,0,VALID,23.6622,VALID,133,VALID,0.3,
2012-07-27, 00:39:05,VALID,1001.29,VALID,0,VALID,85.9324,VALID,0,VALID,23.6817,VALID,130,VALID,0.69375,
2012-07-27, 00:40:05,VALID,1001.26,VALID,0,VALID,85.4289,VALID,0,VALID,23.6817,VALID,130,VALID,0.485547,
2012-07-27, 00:41:05,VALID,1001.25,VALID,0,VALID,86.1842,VALID,0,VALID,23.7012,VALID,125,VALID,0.729297,
2012-07-27, 00:42:05,VALID,1001.22,VALID,0,VALID,85.7188,VALID,0,VALID,23.6817,VALID,106,VALID,0.941797,
2012-07-27, 00:43:05,VALID,1001.24,VALID,0,VALID,86.1766,VALID,0,VALID,23.6817,VALID,103,VALID,0.719922,
2012-07-27, 00:44:05,VALID,1001.25,VALID,0,VALID,86.5962,VALID,0,VALID,23.6622,VALID,103,VALID,0.564453,
2012-07-27, 00:45:05,VALID,1001.25,VALID,0,VALID,86.4283,VALID,0,VALID,23.6232,VALID,116,VALID,0.317969,
2012-07-27, 00:46:05,VALID,1001.29,VALID,0,VALID,86.6572,VALID,0,VALID,23.6036,VALID,137,VALID,0.5125,
2012-07-27, 00:47:05,VALID,1001.28,VALID,0,VALID,86.2223,VALID,0,VALID,23.5841,VALID,203,VALID,0.84375,
2012-07-27, 00:48:05,VALID,1001.26,VALID,0,VALID,86.085,VALID,0,VALID,23.6232,VALID,214,VALID,0.548047,
2012-07-27, 00:49:05,VALID,1001.22,VALID,0,VALID,85.8256,VALID,0,VALID,23.6232,VALID,143,VALID,0.705078,
2012-07-27, 00:50:05,VALID,1001.25,VALID,0,VALID,85.1237,VALID,0,VALID,23.6427,VALID,142,VALID,0.321875,
2012-07-27, 00:51:05,VALID,1001.22,VALID,0,VALID,84.7727,VALID,0,VALID,23.6622,VALID,142,VALID,0.0449219,
2012-07-27, 00:52:05,VALID,1001.21,VALID,0,VALID,85.5586,VALID,0,VALID,23.6817,VALID,142,VALID,0.00273437,
2012-07-27, 00:53:05,VALID,1001.19,VALID,0,VALID,86.3978,VALID,0,VALID,23.7012,VALID,142,VALID,0.269922,
2012-07-27, 00:54:05,VALID,1001.12,VALID,0,VALID,85.9095,VALID,0,VALID,23.6817,VALID,142,VALID,0.437891,
2012-07-27, 00:55:05,VALID,1001.1,VALID,0,VALID,85.94,VALID,0,VALID,23.6427,VALID,90,VALID,0.699219,
2012-07-27, 00:56:05,VALID,1001.07,VALID,0,VALID,85.879,VALID,0,VALID,23.6214,VALID,90,VALID,0.578125,
2012-07-27, 00:57:05,VALID,1001.08,VALID,0,VALID,85.7264,VALID,0,VALID,23.6232,VALID,90,VALID,0.271484,
2012-07-27, 00:58:05,VALID,1001.06,VALID,0,VALID,86.4054,VALID,0,VALID,23.6036,VALID,90,VALID,0.226953,
2012-07-27, 00:59:05,VALID,1001.04,VALID,0,VALID,86.6725,VALID,0,VALID,23.6036,VALID,90,VALID,0.232031,
2012-07-27, 01:00:05,VALID,1000.99,VALID,0,VALID,86.4436,VALID,0,VALID,23.5841,VALID,90,VALID,0.350781,
2012-07-27, 01:01:05,VALID,1000.98,VALID,0,VALID,86.558,VALID,0,VALID,23.5841,VALID,90,VALID,0.0140625,
2012-07-27, 01:02:05,VALID,1000.97,VALID,0,VALID,86.9624,VALID,0,VALID,23.5646,VALID,90,VALID,0.096875,
2012-07-27, 01:03:05,VALID,1000.99,VALID,0,VALID,87.733,VALID,0,VALID,23.5646,VALID,90,VALID,0.361328,
2012-07-27, 01:04:04,VALID,1000.99,VALID,0,VALID,88.29,VALID,0,VALID,23.5451,VALID,90,VALID,0.385938,
2012-07-27, 01:05:04,VALID,1000.97,VALID,0,VALID,88.2823,VALID,0,VALID,23.4848,VALID,90,VALID,0.400781,
2012-07-27, 01:06:04,VALID,1000.92,VALID,0,VALID,88.7554,VALID,0,VALID,23.4866,VALID,90,VALID,0.207813,
2012-07-27, 01:07:04,VALID,1000.91,VALID,0,VALID,89.0682,VALID,0,VALID,23.4475,VALID,90,VALID,0.207031,
2012-07-27, 01:08:04,VALID,1000.88,VALID,0,VALID,89.2818,VALID,0,VALID,23.428,VALID,90,VALID,0.296484,
2012-07-27, 01:09:04,VALID,1000.84,VALID,0,VALID,89.4573,VALID,0,VALID,23.3872,VALID,90,VALID,0.426172,
2012-07-27, 01:10:04,VALID,1000.8,VALID,0,VALID,89.6786,VALID,0,VALID,23.3482,VALID,90,VALID,0.559766,
2012-07-27, 01:11:04,VALID,1000.85,VALID,0,VALID,90.2813,VALID,0,VALID,23.3305,VALID,90,VALID,0.507813,
2012-07-27, 01:12:04,VALID,1000.81,VALID,0,VALID,90.6094,VALID,0,VALID,23.2915,VALID,90,VALID,0.340625,
2012-07-27, 01:13:04,VALID,1000.8,VALID,0,VALID,90.4491,VALID,0,VALID,23.2524,VALID,90,VALID,0.0785156,
2012-07-27, 01:14:04,VALID,1000.79,VALID,0,VALID,90.5407,VALID,0,VALID,23.2117,VALID,90,VALID,0.175,
2012-07-27, 01:15:04,VALID,1000.81,VALID,0,VALID,90.6094,VALID,0,VALID,23.2134,VALID,90,VALID,0.280078,
2012-07-27, 01:16:04,VALID,1000.79,VALID,0,VALID,90.7162,VALID,0,VALID,23.2134,VALID,90,VALID,0.380078,
2012-07-27, 01:17:04,VALID,1000.74,VALID,0,VALID,90.2431,VALID,0,VALID,23.1531,VALID,93,VALID,0.838672,
2012-07-27, 01:18:04,VALID,1000.77,VALID,0,VALID,89.9227,VALID,0,VALID,23.1939,VALID,92,VALID,0.726953,
2012-07-27, 01:19:04,VALID,1000.75,VALID,0,VALID,90.144,VALID,0,VALID,23.1939,VALID,92,VALID,0.530469,
2012-07-27, 01:20:04,VALID,1000.8,VALID,0,VALID,90.5407,VALID,0,VALID,23.1939,VALID,45,VALID,0.630078,
2012-07-27, 01:21:04,VALID,1000.78,VALID,0,VALID,91.0137,VALID,0,VALID,23.1939,VALID,31,VALID,0.667578,
2012-07-27, 01:22:04,VALID,1000.73,VALID,0,VALID,91.4563,VALID,0,VALID,23.1744,VALID,31,VALID,0.713281,
2012-07-27, 01:23:04,VALID,1000.75,VALID,0,VALID,91.8759,VALID,0,VALID,23.1744,VALID,31,VALID,0.730859,
2012-07-27, 01:24:04,VALID,1000.76,VALID,0,VALID,92.3031,VALID,0,VALID,23.1354,VALID,51,VALID,0.971094,
2012-07-27, 01:25:04,VALID,1000.72,VALID,0,VALID,92.6541,VALID,0,VALID,23.0964,VALID,58,VALID,0.968359,
2012-07-27, 01:26:04,VALID,1000.73,VALID,0,VALID,92.9288,VALID,0,VALID,23.0573,VALID,74,VALID,1.23828,
2012-07-27, 01:27:04,VALID,1000.74,VALID,0,VALID,93.089,VALID,0,VALID,23.0378,VALID,80,VALID,1.13633,
2012-07-27, 01:28:04,VALID,1000.73,VALID,0,VALID,93.15,VALID,0,VALID,23.0183,VALID,81,VALID,0.776953,
2012-07-27, 01:29:04,VALID,1000.72,VALID,0,VALID,93.0966,VALID,0,VALID,22.9793,VALID,79,VALID,0.619531,
2012-07-27, 01:30:04,VALID,1000.72,VALID,0,VALID,93.0203,VALID,0,VALID,22.9581,VALID,59,VALID,0.442969,
2012-07-27, 01:31:04,VALID,1000.7,VALID,0,VALID,93.0051,VALID,0,VALID,22.9598,VALID,59,VALID,0.3125,
2012-07-27, 01:32:04,VALID,1000.69,VALID,0,VALID,93.0051,VALID,0,VALID,22.9598,VALID,59,VALID,0.450781,
2012-07-27, 01:33:04,VALID,1000.66,VALID,0,VALID,93.0432,VALID,0,VALID,22.9598,VALID,59,VALID,0.358203,
2012-07-27, 01:34:04,VALID,1000.65,VALID,0,VALID,93.1043,VALID,0,VALID,22.9793,VALID,59,VALID,0.302344,
2012-07-27, 01:35:04,VALID,1000.65,VALID,0,VALID,93.0814,VALID,0,VALID,22.9581,VALID,59,VALID,0.467187,
2012-07-27, 01:36:04,VALID,1000.62,VALID,0,VALID,93.0356,VALID,0,VALID,22.9581,VALID,59,VALID,0.719922,
2012-07-27, 01:37:04,VALID,1000.6,VALID,0,VALID,92.204,VALID,0,VALID,22.919,VALID,65,VALID,0.847266,
2012-07-27, 01:38:04,VALID,1000.58,VALID,0,VALID,91.9445,VALID,0,VALID,22.9988,VALID,75,VALID,0.877344,
2012-07-27, 01:39:04,VALID,1000.6,VALID,0,VALID,91.7385,VALID,0,VALID,22.9776,VALID,75,VALID,0.470703,
2012-07-27, 01:40:04,VALID,1000.59,VALID,0,VALID,91.647,VALID,0,VALID,23.0378,VALID,75,VALID,0.122266,
2012-07-27, 01:41:04,VALID,1000.6,VALID,0,VALID,91.5936,VALID,0,VALID,23.0378,VALID,75,VALID,0,
2012-07-27, 01:42:04,VALID,1000.56,VALID,0,VALID,91.7385,VALID,0,VALID,23.0378,VALID,75,VALID,0.01875,
2012-07-27, 01:43:04,VALID,1000.53,VALID,0,VALID,91.4563,VALID,0,VALID,23.0378,VALID,75,VALID,0.577344,
2012-07-27, 01:44:04,VALID,1000.54,VALID,0,VALID,91.0824,VALID,0,VALID,23.0573,VALID,85,VALID,0.920313,
2012-07-27, 01:45:04,VALID,1000.48,VALID,0,VALID,90.7925,VALID,0,VALID,23.0964,VALID,85,VALID,1.14453,
2012-07-27, 01:46:04,VALID,1000.48,VALID,0,VALID,90.5788,VALID,0,VALID,23.1549,VALID,85,VALID,1.13867,
2012-07-27, 01:47:04,VALID,1000.47,VALID,0,VALID,90.5254,VALID,0,VALID,23.1744,VALID,88,VALID,1.11328,
2012-07-27, 01:48:04,VALID,1000.44,VALID,0,VALID,90.411,VALID,0,VALID,23.1744,VALID,92,VALID,1.18398,
2012-07-27, 01:49:04,VALID,1000.47,VALID,0,VALID,90.5254,VALID,0,VALID,23.1744,VALID,91,VALID,0.917578,
2012-07-27, 01:50:04,VALID,1000.43,VALID,0,VALID,90.617,VALID,0,VALID,23.1531,VALID,91,VALID,0.537109,
2012-07-27, 01:51:04,VALID,1000.43,VALID,0,VALID,90.7162,VALID,0,VALID,23.1744,VALID,91,VALID,0.287109,
2012-07-27, 01:52:04,VALID,1000.44,VALID,0,VALID,90.6094,VALID,0,VALID,23.1744,VALID,91,VALID,0.152344,
2012-07-27, 01:53:04,VALID,1000.45,VALID,0,VALID,90.7238,VALID,0,VALID,23.1336,VALID,91,VALID,0.379687,
2012-07-27, 01:54:04,VALID,1000.44,VALID,0,VALID,90.7162,VALID,0,VALID,23.1549,VALID,39,VALID,0.471094,
2012-07-27, 01:55:04,VALID,1000.43,VALID,0,VALID,90.7009,VALID,0,VALID,23.1336,VALID,39,VALID,0.295312,
2012-07-27, 01:56:04,VALID,1000.4,VALID,0,VALID,90.8306,VALID,0,VALID,23.1354,VALID,39,VALID,0.280078,
2012-07-27, 01:57:04,VALID,1000.4,VALID,0,VALID,91.1587,VALID,0,VALID,23.1549,VALID,39,VALID,0.685547,
2012-07-27, 01:58:04,VALID,1000.35,VALID,0,VALID,91.1053,VALID,0,VALID,23.1159,VALID,39,VALID,0.654297,
2012-07-27, 01:59:04,VALID,1000.36,VALID,0,VALID,91.1892,VALID,0,VALID,23.0556,VALID,39,VALID,0.591016,
2012-07-27, 02:00:04,VALID,1000.37,VALID,0,VALID,91.3647,VALID,0,VALID,23.0378,VALID,39,VALID,0.809375,
2012-07-27, 02:01:04,VALID,1000.34,VALID,0,VALID,91.3876,VALID,0,VALID,22.9793,VALID,39,VALID,0.759375,
2012-07-27, 02:02:04,VALID,1000.34,VALID,0,VALID,91.5554,VALID,0,VALID,22.9403,VALID,39,VALID,0.330469,
2012-07-27, 02:03:04,VALID,1000.35,VALID,0,VALID,91.7996,VALID,0,VALID,22.9208,VALID,39,VALID,0.420312,
2012-07-27, 02:04:04,VALID,1000.35,VALID,0,VALID,91.8606,VALID,0,VALID,22.9013,VALID,39,VALID,0.287891,
2012-07-27, 02:05:04,VALID,1000.33,VALID,0,VALID,91.8683,VALID,0,VALID,22.8818,VALID,39,VALID,0.401953,
2012-07-27, 02:06:04,VALID,1000.33,VALID,0,VALID,91.7843,VALID,0,VALID,22.8623,VALID,39,VALID,0.48125,
2012-07-27, 02:07:04,VALID,1000.3,VALID,0,VALID,91.3189,VALID,0,VALID,22.8623,VALID,13,VALID,0.7875,
2012-07-27, 02:08:04,VALID,1000.26,VALID,0,VALID,91.0824,VALID,0,VALID,22.841,VALID,13,VALID,0.834375,
2012-07-27, 02:09:04,VALID,1000.25,VALID,0,VALID,91.0061,VALID,0,VALID,22.8818,VALID,23,VALID,0.844922,
2012-07-27, 02:10:04,VALID,1000.24,VALID,0,VALID,90.6323,VALID,0,VALID,22.8623,VALID,48,VALID,0.992969,
2012-07-27, 02:11:04,VALID,1000.22,VALID,0,VALID,90.2584,VALID,0,VALID,22.8818,VALID,48,VALID,1.05,
2012-07-27, 02:12:04,VALID,1000.23,VALID,0,VALID,90.0982,VALID,0,VALID,22.9208,VALID,48,VALID,0.911328,
2012-07-27, 02:13:04,VALID,1000.2,VALID,0,VALID,90.1134,VALID,0,VALID,22.9403,VALID,64,VALID,0.679688,
2012-07-27, 02:14:04,VALID,1000.2,VALID,0,VALID,90.266,VALID,0,VALID,22.9793,VALID,67,VALID,0.711719,
2012-07-27, 02:15:04,VALID,1000.19,VALID,0,VALID,90.0524,VALID,0,VALID,22.9988,VALID,75,VALID,0.815234,
2012-07-27, 02:16:04,VALID,1000.17,VALID,0,VALID,90.1363,VALID,0,VALID,23.0183,VALID,75,VALID,0.808594,
2012-07-27, 02:17:04,VALID,1000.15,VALID,0,VALID,90.3881,VALID,0,VALID,23.0378,VALID,75,VALID,0.886328,
2012-07-27, 02:18:04,VALID,1000.15,VALID,0,VALID,90.7467,VALID,0,VALID,23.0183,VALID,75,VALID,0.704687,
2012-07-27, 02:19:04,VALID,1000.16,VALID,0,VALID,90.8611,VALID,0,VALID,23.0183,VALID,76,VALID,0.713672,
2012-07-27, 02:20:04,VALID,1000.13,VALID,0,VALID,90.3347,VALID,0,VALID,22.9988,VALID,82,VALID,0.976953,
2012-07-27, 02:21:04,VALID,1000.18,VALID,0,VALID,89.7854,VALID,0,VALID,22.9988,VALID,86,VALID,0.639453,
2012-07-27, 02:22:04,VALID,1000.16,VALID,0,VALID,89.2513,VALID,0,VALID,23.0183,VALID,84,VALID,0.629687,
2012-07-27, 02:23:04,VALID,1000.16,VALID,0,VALID,88.5951,VALID,0,VALID,23.0378,VALID,70,VALID,0.530078,
2012-07-27, 02:24:04,VALID,1000.15,VALID,0,VALID,88.8622,VALID,0,VALID,23.0769,VALID,56,VALID,0.478516,
2012-07-27, 02:25:04,VALID,1000.16,VALID,0,VALID,89.1979,VALID,0,VALID,23.0964,VALID,38,VALID,0.534375,
2012-07-27, 02:26:04,VALID,1000.16,VALID,0,VALID,89.6175,VALID,0,VALID,23.0751,VALID,10,VALID,0.903516,
2012-07-27, 02:27:04,VALID,1000.13,VALID,0,VALID,89.7854,VALID,0,VALID,23.0573,VALID,11,VALID,1.18047,
2012-07-27, 02:28:04,VALID,1000.13,VALID,0,VALID,89.9532,VALID,0,VALID,22.9988,VALID,15,VALID,1.10312,
2012-07-27, 02:29:04,VALID,1000.09,VALID,0,VALID,90.1897,VALID,0,VALID,22.9598,VALID,15,VALID,1.01797,
2012-07-27, 02:30:04,VALID,1000.11,VALID,0,VALID,90.3423,VALID,0,VALID,22.9208,VALID,11,VALID,0.995703,
2012-07-27, 02:31:04,VALID,1000.08,VALID,0,VALID,90.5865,VALID,0,VALID,22.9013,VALID,12,VALID,0.972656,
2012-07-27, 02:32:04,VALID,1000.09,VALID,0,VALID,90.4797,VALID,0,VALID,22.8818,VALID,8,VALID,0.973437,
2012-07-27, 02:33:04,VALID,1000.09,VALID,0,VALID,90.1821,VALID,0,VALID,22.8818,VALID,8,VALID,0.736328,
2012-07-27, 02:34:04,VALID,1000.09,VALID,0,VALID,90.3423,VALID,0,VALID,22.8818,VALID,8,VALID,0.586719,
2012-07-27, 02:35:04,VALID,1000.06,VALID,0,VALID,90.0219,VALID,0,VALID,22.841,VALID,30,VALID,0.913281,
2012-07-27, 02:36:04,VALID,1000.08,VALID,0,VALID,89.7396,VALID,0,VALID,22.8215,VALID,38,VALID,0.591406,
2012-07-27, 02:37:04,VALID,1000.07,VALID,0,VALID,89.8998,VALID,0,VALID,22.8623,VALID,38,VALID,0.300391,
2012-07-27, 02:38:04,VALID,1000.08,VALID,0,VALID,89.9914,VALID,0,VALID,22.841,VALID,69,VALID,0.652344,
2012-07-27, 02:39:04,VALID,1000.05,VALID,0,VALID,89.587,VALID,0,VALID,22.8623,VALID,69,VALID,0.951172,
2012-07-27, 02:40:04,VALID,1000.02,VALID,0,VALID,89.5946,VALID,0,VALID,22.8818,VALID,66,VALID,0.916797,
2012-07-27, 02:41:04,VALID,1000.06,VALID,0,VALID,89.7854,VALID,0,VALID,22.8995,VALID,72,VALID,0.783984,
2012-07-27, 02:42:04,VALID,1000.07,VALID,0,VALID,89.8006,VALID,0,VALID,22.9013,VALID,72,VALID,0.215234,
2012-07-27, 02:43:04,VALID,1000.05,VALID,0,VALID,89.9227,VALID,0,VALID,22.9208,VALID,72,VALID,0.160547,
2012-07-27, 02:44:04,VALID,1000.04,VALID,0,VALID,90.0829,VALID,0,VALID,22.9013,VALID,72,VALID,0.195703,
2012-07-27, 02:45:04,VALID,1000.03,VALID,0,VALID,89.7014,VALID,0,VALID,22.88,VALID,72,VALID,0.356641,
2012-07-27, 02:46:04,VALID,1000.06,VALID,0,VALID,89.3963,VALID,0,VALID,22.8818,VALID,48,VALID,0.728906,
2012-07-27, 02:47:04,VALID,1000.06,VALID,0,VALID,89.3581,VALID,0,VALID,22.9208,VALID,30,VALID,0.953906,
2012-07-27, 02:48:04,VALID,1000.03,VALID,0,VALID,89.1979,VALID,0,VALID,22.9013,VALID,31,VALID,1.04453,
2012-07-27, 02:49:04,VALID,1000.02,VALID,0,VALID,89.1674,VALID,0,VALID,22.88,VALID,37,VALID,1.31914,
2012-07-27, 02:50:04,VALID,1000.02,VALID,0,VALID,89.3657,VALID,0,VALID,22.8818,VALID,46,VALID,1.47109,
2012-07-27, 02:51:04,VALID,1000.05,VALID,0,VALID,89.9532,VALID,0,VALID,22.9013,VALID,57,VALID,1.01289,
2012-07-27, 02:52:04,VALID,1000.09,VALID,0,VALID,90.1745,VALID,0,VALID,22.8818,VALID,59,VALID,0.63125,
2012-07-27, 02:53:04,VALID,1000.09,VALID,0,VALID,90.4263,VALID,0,VALID,22.9013,VALID,62,VALID,0.144922,
2012-07-27, 02:54:04,VALID,1000.12,VALID,0,VALID,90.5941,VALID,0,VALID,22.8818,VALID,63,VALID,0.101563,
2012-07-27, 02:55:04,VALID,1000.14,VALID,0,VALID,90.5331,VALID,0,VALID,22.8605,VALID,167,VALID,0.583594,
2012-07-27, 02:56:04,VALID,1000.15,VALID,0,VALID,90.6246,VALID,0,VALID,22.8818,VALID,167,VALID,0.597266,
2012-07-27, 02:57:04,VALID,1000.16,VALID,0,VALID,90.7162,VALID,0,VALID,22.9208,VALID,167,VALID,0.347656,
2012-07-27, 02:58:04,VALID,1000.21,VALID,0,VALID,90.4415,VALID,0,VALID,22.9208,VALID,167,VALID,0.754297,
2012-07-27, 02:59:04,VALID,1000.24,VALID,0,VALID,90.4186,VALID,0,VALID,22.9793,VALID,200,VALID,1.13828,
2012-07-27, 03:00:04,VALID,1000.26,VALID,0,VALID,88.6562,VALID,0,VALID,23.1159,VALID,199,VALID,1.9207,
2012-07-27, 03:01:04,VALID,1000.25,VALID,0,VALID,86.291,VALID,0,VALID,23.2915,VALID,199,VALID,1.73438,
2012-07-27, 03:02:04,VALID,1000.21,VALID,0,VALID,85.406,VALID,0,VALID,23.389,VALID,217,VALID,1.93203,
2012-07-27, 03:03:04,VALID,1000.19,VALID,0,VALID,85.116,VALID,0,VALID,23.4671,VALID,224,VALID,1.78398,
2012-07-27, 03:04:04,VALID,1000.21,VALID,0,VALID,83.4528,VALID,0,VALID,23.4866,VALID,222,VALID,1.8332,
2012-07-27, 03:05:04,VALID,1000.22,VALID,0,VALID,83.14,VALID,0,VALID,23.5256,VALID,202,VALID,1.33086,
2012-07-27, 03:06:04,VALID,1000.2,VALID,0,VALID,83.3383,VALID,0,VALID,23.5646,VALID,183,VALID,1.22539,
2012-07-27, 03:07:04,VALID,1000.17,VALID,0,VALID,83.0332,VALID,0,VALID,23.5646,VALID,156,VALID,0.676953,
2012-07-27, 03:08:04,VALID,1000.14,VALID,0,VALID,83.468,VALID,0,VALID,23.5841,VALID,148,VALID,1.09844,
2012-07-27, 03:09:04,VALID,1000.13,VALID,0,VALID,83.6206,VALID,0,VALID,23.5841,VALID,141,VALID,1.17656,
2012-07-27, 03:10:04,VALID,1000.14,VALID,0,VALID,85.0779,VALID,0,VALID,23.5451,VALID,145,VALID,1.43828,
2012-07-27, 03:11:04,VALID,1000.14,VALID,0,VALID,86.2376,VALID,0,VALID,23.4866,VALID,133,VALID,0.782422,
2012-07-27, 03:12:04,VALID,1000.12,VALID,0,VALID,86.8022,VALID,0,VALID,23.428,VALID,154,VALID,0.957812,
2012-07-27, 03:13:04,VALID,1000.14,VALID,0,VALID,86.7564,VALID,0,VALID,23.3695,VALID,167,VALID,0.929297,
2012-07-27, 03:14:04,VALID,1000.14,VALID,0,VALID,86.3673,VALID,0,VALID,23.3305,VALID,166,VALID,0.627344,
2012-07-27, 03:15:04,VALID,1000.14,VALID,0,VALID,85.879,VALID,0,VALID,23.3323,VALID,174,VALID,0.345703,
2012-07-27, 03:16:04,VALID,1000.16,VALID,0,VALID,85.3068,VALID,0,VALID,23.311,VALID,145,VALID,0.608203,
2012-07-27, 03:17:04,VALID,1000.14,VALID,0,VALID,85.5509,VALID,0,VALID,23.3305,VALID,141,VALID,0.359375,
2012-07-27, 03:18:04,VALID,1000.14,VALID,0,VALID,85.4441,VALID,0,VALID,23.311,VALID,139,VALID,0.0726563,
2012-07-27, 03:19:04,VALID,1000.19,VALID,0,VALID,85.6883,VALID,0,VALID,23.2915,VALID,139,VALID,0.096875,
2012-07-27, 03:20:04,VALID,1000.16,VALID,0,VALID,86.4283,VALID,0,VALID,23.311,VALID,140,VALID,0.610547,
2012-07-27, 03:21:04,VALID,1000.16,VALID,0,VALID,86.1613,VALID,0,VALID,23.2915,VALID,288,VALID,0.687891,
2012-07-27, 03:22:04,VALID,1000.17,VALID,0,VALID,86.642,VALID,0,VALID,23.2719,VALID,288,VALID,0.494141,
2012-07-27, 03:23:04,VALID,1000.13,VALID,0,VALID,86.8098,VALID,0,VALID,23.2524,VALID,288,VALID,0.416016,
2012-07-27, 03:24:04,VALID,1000.17,VALID,0,VALID,86.7488,VALID,0,VALID,23.2329,VALID,288,VALID,0.250781,
2012-07-27, 03:25:04,VALID,1000.13,VALID,0,VALID,87.5651,VALID,0,VALID,23.2134,VALID,288,VALID,0.307422,
2012-07-27, 03:26:04,VALID,1000.12,VALID,0,VALID,88.0916,VALID,0,VALID,23.1939,VALID,288,VALID,0.548828,
2012-07-27, 03:27:04,VALID,1000.09,VALID,0,VALID,88.7783,VALID,0,VALID,23.1744,VALID,288,VALID,0.676172,
2012-07-27, 03:28:04,VALID,1000.1,VALID,0,VALID,88.0687,VALID,0,VALID,23.1159,VALID,288,VALID,0.241797,
2012-07-27, 03:29:04,VALID,1000.07,VALID,0,VALID,88.29,VALID,0,VALID,23.0769,VALID,288,VALID,0,
2012-07-27, 03:30:04,VALID,1000.09,VALID,0,VALID,89.03,VALID,0,VALID,23.1176,VALID,288,VALID,0.247266,
2012-07-27, 03:31:04,VALID,1000.11,VALID,0,VALID,87.1303,VALID,0,VALID,23.0183,VALID,125,VALID,0.469922,
2012-07-27, 03:32:04,VALID,1000.09,VALID,0,VALID,85.6425,VALID,0,VALID,23.0378,VALID,71,VALID,0.494531,
2012-07-27, 03:33:04,VALID,1000.1,VALID,0,VALID,85.612,VALID,0,VALID,23.0964,VALID,59,VALID,0.0121094,
2012-07-27, 03:34:04,VALID,1000.09,VALID,0,VALID,85.7493,VALID,0,VALID,23.1354,VALID,59,VALID,0.0871094,
2012-07-27, 03:35:04,VALID,1000.12,VALID,0,VALID,86.1003,VALID,0,VALID,23.1957,VALID,59,VALID,0.143359,
2012-07-27, 03:36:04,VALID,1000.1,VALID,0,VALID,85.1694,VALID,0,VALID,23.1939,VALID,57,VALID,0.118359,
2012-07-27, 03:37:04,VALID,1000.11,VALID,0,VALID,84.0708,VALID,0,VALID,23.1939,VALID,56,VALID,0.230078,
2012-07-27, 03:38:04,VALID,1000.1,VALID,0,VALID,83.9334,VALID,0,VALID,23.2329,VALID,56,VALID,0,
2012-07-27, 03:39:04,VALID,1000.1,VALID,0,VALID,83.262,VALID,0,VALID,23.2524,VALID,55,VALID,0.213672,
2012-07-27, 03:40:04,VALID,1000.11,VALID,0,VALID,83.4909,VALID,0,VALID,23.311,VALID,53,VALID,0.0765625,
2012-07-27, 03:41:04,VALID,1000.12,VALID,0,VALID,83.5367,VALID,0,VALID,23.3695,VALID,53,VALID,0.249219,
2012-07-27, 03:42:04,VALID,1000.12,VALID,0,VALID,84.8185,VALID,0,VALID,23.4085,VALID,53,VALID,0.261328,
2012-07-27, 03:43:04,VALID,1000.08,VALID,0,VALID,83.1247,VALID,0,VALID,23.4085,VALID,53,VALID,0.324219,
2012-07-27, 03:44:04,VALID,1000.09,VALID,0,VALID,83.3078,VALID,0,VALID,23.428,VALID,53,VALID,0.252344,
2012-07-27, 03:45:04,VALID,1000.11,VALID,0,VALID,83.5367,VALID,0,VALID,23.428,VALID,53,VALID,0.183203,
2012-07-27, 03:46:04,VALID,1000.09,VALID,0,VALID,84.2615,VALID,0,VALID,23.4493,VALID,53,VALID,0.0207031,